www.pogodaiklimat.ru

Погода и климат >> Архив погоды >> Россия >> Костромская область >> Шарья


ПОГОДА в Шарье

  • Прогноз погоды в Шарье
  • Монитор погоды в Шарье

АРХИВ ПОГОДЫ в Шарье

Время (UTC), дата Ветер
(напр.,м/с)
 
Видим.   Явления Облачность Т
(С)
Тd
(С)
f
(%)
Тe
(С)
Тes
(С)
Комфортность P
(гПа)
Po
(гПа)
Тmin
(С)
Tmax
(С)
R
(мм)
R24
(мм)
S
(см)
00 9.09 штиль 0 10 км ясно +3.5 +2.9 96 +2 +2 1031.3 1015.5
03 9.09 штиль 0 2000 м дымка 4/0
[Ac trans Cc]
+2.9 +2.3 96 +2 +2 1031.7 1015.9 +2.2
06 9.09 С 1 10 км 6/0
[Ac As Ci fib]
+13.4 +10.1 80 +14 +17 1031.1 1015.9 +2.2
09 9.09 С 2 20 км 8/3 1000 м
[Cu hum Ci fib]
+18.8 +8.9 53 +20 +24 1030.3 1015.4
12 9.09 СЗ 1 20 км 9/3 1000 м
[Cu hum Cc]
+20.2 +8.0 45 +22 +25 комфорт 1029.7 1014.9
15 9.09 штиль 0 10 км 8/0
[Ci fib]
+16.0 +12.0 77 +16 +16 1029.3 1014.3 +20.4
18 9.09 штиль 0 10 км 3/0
[Ac As]
+7.2 +6.3 94 +6 +6 1030.4 1014.9
21 9.09 штиль 0 10 км ясно +4.5 +3.9 96 +3 +3 1031.0 1015.3
00 10.09 штиль 0 4000 м дымка ясно +2.9 +2.4 97 +2 +2 1031.7 1015.9
03 10.09 штиль 0 4000 м дымка 3/0
[Ac trans]
+2.4 +1.9 96 +1 +1 1032.5 1016.6 +1.7
06 10.09 штиль 0 10 км 3/0
[Ci sp]
+16.6 +10.1 65 +17 +22 1031.8 1016.7 +1.7
09 10.09 З 1 20 км 8/5 1000 м
[Cb cap Ci fib]
+20.4 +9.1 48 +23 +27 комфорт 1031.5 1016.7
12 10.09 штиль 0 20 км 8/3 1000 м
[Cu hum Ci fib]
+22.1 +8.4 41 +23 +26 комфорт 1031.1 1016.3
15 10.09 штиль 0 20 км 10/0
[Ci fib]
+16.8 +12.8 77 +17 +17 1031.1 1016.1 +22.4
18 10.09 штиль 0 10 км 3/0
[Ci fib]
+8.1 +7.1 93 +7 +7 1031.9 1016.4
21 10.09 штиль 0 10 км 3/0
[Ci fib]
+5.9 +5.1 95 +5 +5 1032.5 1016.9
00 11.09 штиль 0 10 км ясно +4.3 +3.7 96 +3 +3 1033.4 1017.7
03 11.09 штиль 0 10 км 9/0
[Ac trans Ci fib]
+4.1 +3.5 96 +3 +3 1033.7 1018.0 +3.0
06 11.09 ЮЗ 1 10 км 9/0
[Ac trans Ci fib]
+16.2 +10.2 68 +17 +21 1032.9 1017.9 +3.0
09 11.09 ЮЗ 2 20 км 8/0
[Ci sp]
+21.7 +10.8 50 +24 +30 комфорт 1032.1 1017.3
12 11.09 ЮЗ 1 20 км 8/5 1000 м
[Cu med, cong Ci fib]
+22.5 +10.5 47 +24 +26 комфорт 1030.7 1016.0
15 11.09 Ю 1 10 км 9/0
[Ci fib]
+18.9 +12.2 65 +21 +21 комфорт 1029.7 1014.8 +23.7
18 11.09 Ю 1 10 км 3/0
[Ci fib]
+12.9 +11.3 90 +13 +13 1029.6 1014.4
21 11.09 Ю 1 10 км 3/0
[Ci fib]
+14.0 +10.7 80 +14 +14 1028.6 1013.5
00 12.09 Ю 1 10 км 3/0
[Ci fib]
+10.8 +9.5 92 +10 +10 1028.1 1012.8
03 12.09 Ю 1 10 км 9/0
[Ci fib]
+10.9 +9.9 94 +10 +10 1027.7 1012.4 +10.6
06 12.09 Ю 1 10 км 10/1 600 м
[Sc Ac trans Ci fib]
+16.7 +11.2 70 +18 +20 1026.9 1012.0 +10.6
09 12.09 ЮЗ 2 10 км 10/0
[Ci fib]
+23.6 +10.4 43 +25 +30 комфорт 1025.7 1011.1
12 12.09 З 2 10 км 10/10 1000 м
[Cb cap]
+22.9 +8.9 41 +24 +24 комфорт 1024.6 1010.0
15 12.09 ЮЗ 1 10 км 3/0
[Ac trans Ci fib]
+19.5 +8.5 49 +21 +21 комфорт 1023.4 1008.6 +25.1
18 12.09 Ю 1 10 км 4/0
[Ci fib]
+14.0 +9.4 74 +14 +14 1023.2 1008.1
21 12.09 Ю 1 10 км 8/0
[Ac trans Ci sp]
+11.8 +9.3 85 +12 +12 1022.2 1007.1
00 13.09 Ю 1 10 км 10/0
[Ac trans Ci sp]
+12.3 +8.7 79 +12 +12 1021.0 1005.9
03 13.09 Ю 1 10 км 3/0
[Ac trans Ci sp]
+12.1 +7.8 75 +12 +12 1019.5 1004.4 +11.7
06 13.09 ЮЗ 2 10 км 1/0
[Ac trans]
+17.3 +8.9 58 +18 +21 1017.8 1003.0 +11.7
09 13.09 ЮЗ 3 10 км 8/0
[Ac trans Ci fib]
+22.0 +9.8 46 +24 +28 комфорт 1016.8 1002.3
12 13.09 ЮЗ 2 20 км 9/3 1000 м
[Cu hum Ac trans Ci fib]
+21.8 +8.9 44 +23 +25 комфорт 1015.3 1000.8
15 13.09 Ю 1 10 км 10/1 600 м
[Cb cap Ac trans Ci fib]
+17.2 +10.9 66 +18 +18 1013.4 998.7 +22.7
18 13.09 Ю 1 10 км в посл. час ливневой дождь 10/3 600 м
[Cb cap Ac und]
+16.7 +11.2 70 +18 +18 1012.5 997.8
21 13.09 Ю 1 10 км 10/0
[Ac trans Ci fib]
+14.4 +10.6 78 +15 +15 1011.4 996.6
00 14.09 Ю 1 10 км 10/0
[Ac und]
+11.4 +9.9 90 +11 +11 1009.6 994.6
03 14.09 Ю 2 10 км в посл. час ливневой дождь 10/3 600 м
[Cb cap Ac und]
+12.5 +10.1 85 +12 +12 1006.5 991.6 +11.0 0.0
06 14.09 Ю 3 10 км {ливн. осадки} 10/3 600 м
[Cb cap Ac und]
+15.6 +9.6 67 +15 +16 1003.5 988.8
09 14.09 ЮЗ 3
{10}
10 км {ливн. осадки} 10/8 600 м
[Cb cap Ac trans]
+15.6 +9.4 67 +15 +15 1003.4 988.7
12 14.09 З 3
{13}
20 км в посл. час ливневой дождь 10/5 600 м
[Cb cap Ac trans Ci fib]
+13.9 +8.7 71 +13 +14 1006.0 991.2
15 14.09 З 3
{12}
20 км 8/0
[Ac cuf Ci fib]
+13.3 +5.9 61 +12 +12 1007.6 992.8 +17.2 0.1
18 14.09 ЮЗ 2 10 км ясно +9.6 +5.6 76 +8 +8 1008.8 993.8
21 14.09 З 1 10 км ясно +7.3 +4.8 84 +6 +6 1009.2 994.0
00 15.09 ЮЗ 1 10 км ясно +4.9 +3.8 93 +3 +3 1009.5 994.1
03 15.09 ЮЗ 1 10 км ясно +4.1 +3.2 94 +3 +3 1009.2 993.8 +3.8
06 15.09 З 2 10 км 8/8 600 м
[Sc Ac trans]
+9.6 +5.2 74 +8 +9 1009.0 993.9 +3.8
09 15.09 З 4 10 км 10/10 600 м
[Sc]
+11.5 +3.9 60 +10 +10 1008.7 993.7
12 15.09 ЮЗ 3 10 км {ливн. осадки} 9/9 600 м
[Cb cap]
+12.8 +3.5 53 +12 +12 1007.9 993.0
15 15.09 ЮЗ 2 10 км 8/8 600 м
[Cb cap Ac trans]
+9.5 +4.3 70 +8 +8 1007.2 992.2 +12.8 0.4
18 15.09 ЮЗ 1 10 км 3/0
[Ac trans Ci fib]
+5.5 +3.9 89 +4 +4 1006.5 991.2
21 15.09 Ю 1 10 км 1/0
[Ci fib]
+3.1 +2.1 93 +1 +1 1004.4 989.1

 

Местоположение метеостанции Шарья (Костромская область, Россия): широта 58.37 долгота 45.53 высота над уровнем моря 125 м.

В архиве по умолчанию представлена погода в Шарье за последнюю неделю. Архивные данные за месяц целиком и за предыдущие месяцы, начиная с января 2011 года, Вы можете получить, выбрав интересующий диапазон дат из раскрывающегося списка и нажав кнопку "Ввод!".


*Определитесь, кто Вы:
робот инопланетянин человек

Внимание! Время в таблицах - всемирное. Для получения местного времени необходимо прибавить поправку, которая равна 3 ч.

Смотрите также архив погоды в соседних городах и на ближайших метеорологических станциях:

Погода в Мантурово (Костромская область, Россия) (44 км)
Погода в Пыщуге (Костромская область, Россия) (58 км)
Погода в Ветлуге (Нижегородская область, Россия) (60 км)
Погода в Кологриве (Костромская область, Россия) (86 км)
Погода в Шабалино (Кировская область, Россия) (93 км)
Погода в Вохме (Костромская область, Россия) (95 км)
Погода в Шахунье (Нижегородская область, Россия) (102 км)
Погода в Макарьеве (Костромская область, Россия) (116 км)
Погода в Николо-Поломе (Костромская область, Россия) (125 км)
Погода в Никольске (Вологодская область, Россия) (129 км)

Пояснения к столбцам:

Ветер - указаны скорость ветра в м/с - средняя за 10 мин, порывы в срок и между сроками (в фигурных скобках) и направление, откуда дует ветер: С - северный, СВ - северо-восточный, В - восточный, ЮВ - юго-восточный, Ю - южный, ЮЗ - юго-западный, З - западный, СЗ - северо-западный.
Видимость - горизонтальная дальность видимости в метрах или километрах. При видимости от 1 до 10 км при отсутствии осадков обычно наблюдается дымка, при ухудшении видимости до 1 км и менее - туман. В сухую погоду видимость может ухудшаться дымом, пылью или мглою.
Явления - указаны атмосферные явления, наблюдавшиеся в срок или в последний час перед сроком; фигурными скобками обозначены явления, наблюдавшиеся между сроками (за 1-3 часа до срока); квадратными скобками обозначены град или гололедные отложения с указанием их диаметра в мм.
Облачность - указаны через наклонную черту общая и нижняя облачность в баллах и высота нижней границы облаков в метрах; квадратными скобками обозначены формы облаков: Ci - перистые, Cs - перисто-слоистые, Cc - перисто-кучевые, Ac - высококучевые, As - высокослоистые, Sc - слоисто-кучевые, Ns - слоисто-дождевые, Cu - кучевые, Cb - кучево-дождевые. Подробнее классификацию облаков см. в Атласе облаков (PDF).
T - Температура воздуха - температура, измеренная на высоте 2 м над землей.
Td - Температура точки росы - температура, при понижении до которой содержащийся в воздухе водяной пар достигнет насыщения.
f - Относительная влажность воздуха - влажноcть воздуха, измеренная на высоте 2 м над землей.
Te - Эффективная температура - температура, которую ощущает одетый по сезону человек в тени. Характеристика душности погоды. При расчете учитывается влияние влажности воздуха и скорости ветра на теплоощущения человека.
Tes - Эффективная температура на солнце - температура, которую ощущает человек, с поправкой на солнечный нагрев. Характеристика знойности погоды. Зависит от высоты солнца над горизонтом, облачности и скорости ветра. Ночью, в пасмурную погоду, а также при ветре 12 м/с и более поправка равна нулю.
P - Атмосферное давление - приведенное к уровню моря атмосферное давление.
Po - Атмосферное давление - измеренное на уровне метеостанции атмосферное давление.
Tmin - Минимальная температура - минимум температуры воздуха на высоте 2 м над землей.
Tmax - Максимальная температура - максимум температуры воздуха на высоте 2 м над землей.
R - Количество осадков - Количество выпавших осадков за период времени, мм. При наведении курсора мыши на число - период времени, за который выпало указанное количество осадков.
R24 - Количество осадков - Количество выпавших осадков за 24 часа, мм.
S - Снежный покров - Высота снежного покрова, см. При наведении курсора мыши на число - состояние снежного покрова и степень покрытия местности в баллах.